EDT,Max TemperatureF,Mean TemperatureF,Min TemperatureF,Max Dew PointF,MeanDew PointF,Min DewpointF,Max Humidity, Mean Humidity, Min Humidity, Max Sea Level PressureIn, Mean Sea Level PressureIn, Min Sea Level PressureIn, Max VisibilityMiles, Mean VisibilityMiles, Min VisibilityMiles, Max Wind SpeedMPH, Mean Wind SpeedMPH, Max Gust SpeedMPH,PrecipitationIn, CloudCover, Events, WindDirDegrees
2013-4-1,78,68,58,61,53,37,90,58,25,29.96,29.90,29.86,10,9,3,22,8,26,0.92,5,Rain-Thunderstorm,265
2013-4-2,73,59,44,47,40,34,86,56,26,30.16,30.07,29.98,10,10,9,13,3,20,0.00,1,,313
2013-4-3,65,59,53,46,30,20,67,45,23,30.25,30.18,30.08,10,10,10,16,8,24,T,6,Rain,56
2013-4-4,55,49,43,43,41,34,92,69,46,30.22,30.07,29.95,10,5,1,18,9,28,0.62,8,Rain,42
2013-4-5,62,52,42,47,41,37,89,71,52,30.04,29.97,29.93,10,9,2,12,4,17,0.00,6,,344
2013-4-6,74,56,37,44,37,31,92,57,22,30.22,30.15,30.05,10,10,7,14,4,18,0.00,1,,111
2013-4-7,79,63,47,53,47,41,93,63,32,30.26,30.19,30.09,10,7,0,15,6,22,0.00,4,Fog,139
2013-4-8,83,68,53,56,52,49,89,60,31,30.19,30.13,30.07,10,10,6,15,6,20,0.00,2,,206
2013-4-9,87,73,59,61,56,53,90,61,32,30.21,30.15,30.10,10,10,7,15,5,20,0.00,2,,207
2013-4-10,87,75,62,61,58,54,90,62,34,30.15,30.07,29.98,10,10,10,15,8,23,0.00,0,,204
2013-4-11,86,75,63,69,64,61,93,71,48,30.00,29.92,29.78,10,8,1,30,8,40,0.14,6,Fog-Rain-Thunderstorm,191
2013-4-12,84,74,63,68,62,40,90,58,25,29.85,29.75,29.69,10,9,1,28,13,35,0.37,6,Rain-Thunderstorm,219
2013-4-13,80,65,49,48,41,37,80,52,23,30.01,29.94,29.84,10,10,10,13,4,15,0.00,2,,286
2013-4-14,76,63,49,59,50,44,93,66,38,30.08,30.03,29.88,10,10,7,31,6,41,0.06,6,Rain,133
2013-4-15,76,69,61,62,59,56,90,75,60,30.17,30.04,29.94,10,10,10,13,4,15,0.01,7,Rain,55
2013-4-16,83,72,60,61,58,56,90,67,43,30.27,30.21,30.17,10,9,2,10,3,15,0.00,4,,118
2013-4-17,86,71,56,62,58,55,93,64,35,30.25,30.17,30.10,10,10,8,14,3,17,0.00,3,Fog,145
2013-4-18,83,73,63,67,62,59,93,70,47,30.15,30.09,29.99,10,9,2,24,7,28,0.08,5,Rain,125
2013-4-19,88,71,54,68,64,49,90,69,48,29.99,29.89,29.80,10,9,2,30,12,37,0.33,6,Rain,203
2013-4-20,68,59,49,50,40,33,89,59,29,30.25,30.11,29.97,10,10,10,14,5,18,0.00,5,,310
2013-4-21,72,56,40,43,39,37,89,60,31,30.38,30.32,30.26,10,10,6,21,8,26,0.00,1,Rain,67
2013-4-22,70,60,50,40,31,21,56,38,20,30.35,30.28,30.18,10,10,10,17,9,24,0.00,1,,35
2013-4-23,73,61,49,52,46,38,75,60,44,30.23,30.18,30.11,10,10,10,12,4,17,0.00,3,,56
2013-4-24,81,69,56,56,53,50,86,63,39,30.17,30.11,30.03,10,10,8,18,7,23,0.00,5,,210
2013-4-25,80,67,54,61,54,45,84,57,30,30.24,30.16,30.06,10,10,9,15,4,18,0.00,5,,2
2013-4-26,77,63,49,54,47,38,83,58,33,30.41,30.33,30.25,10,10,10,14,4,17,0.00,2,,72
2013-4-27,68,63,57,56,51,45,86,71,55,30.36,30.31,30.23,10,10,9,10,3,14,0.03,8,Rain,36
2013-4-28,73,66,58,66,61,52,93,83,73,30.23,30.10,30.02,10,6,1,13,4,16,1.77,8,Rain,103
2013-4-29,77,70,62,64,62,59,93,76,58,30.06,30.01,29.94,10,8,2,10,3,23,0.34,7,Fog-Rain,242
2013-4-30,76,69,61,63,61,59,93,77,60,30.13,30.03,29.97,10,6,0,15,5,21,0.00,6,Fog,50